Location: Ferchesar
(52.6477°N, 12.4298°E)
Time: 10:09:17
(UTC+01:00)

S-56A Canister/Altair - Pass Details

Date: 14 December 2021
Orbit: 633 x 2499 km, 38.9° (Epoch: 19 January)

Event Time Altitude Azimuth Distance (km) Brightness Sun altitude
Rises 22:11:42 0° 245° (WSW) 6,032 12.3 -53.5°
Reaches altitude 10° 22:16:14 10° 239° (WSW) 4,860 11.6 -54.0°
Enters shadow 22:18:33 16° 234° (SW) 4,275 11.3 -54.3°
Maximum altitude 22:27:52 39° 178° (S) 2,560 - -55.3°
Drops below altitude 10° 22:36:18 10° 114° (ESE) 3,530 - -56.1°
Sets 22:39:04 0° 107° (ESE) 4,265 - -56.3°
